Погода в Дудоре

Россия / Владимирская область     55°31′57″N   40°54′20″E
темп.,
°C
ветер,
м/с
пор.,
м/с
влажн.,
%
обл.,
%
осадки,
мм/ч
давл.,
гПа
погр.,
м
1 марта, пн
пн100:00−11ссв129766 0.1 102121
03:00−12сз129783 0.1 102221
06:00−8з2296100 0.1 102355
09:00−8зюз239696 0.1 1024124
12:00−2зюз379192 0.0 1024540
15:00−2зюз589093 0.1 1021699
18:00−2зюз41090100 0.1 1019578
21:00−1зюз51294100 0.1 1016764
2 марта, вт
вт200:00+1зюз51294100 0.0 1012682
03:00+1зюз51295100 0.1 1010622
06:00+1з51294100 0.0 1007805
09:00+1зсз51198100 0.5 1007714
12:00+1зсз51089100 0.3 10061045
15:00+1зсз598873 0.4 10061138
18:00−1зсз41093100 0.3 1006745
21:00−2сз41094100 0.6 1007929
3 марта, ср
ср300:00−3сз5129197 0.1 1008881
03:00−7сз5138660 0.2 1009629
06:00−8сз5149057 0.0 1010668
09:00−7сз6128576 0.0 1012745
12:00−3сз598857 0.1 10121039
15:00−1зсз588879 0.3 10121009
18:00−2зсз31093100 0.2 1011547
21:00−3зсз4119299 0.2 1012671
4 марта, чт
чт400:00−3з41191100 0.1 1011478
03:00−3зюз51194100 0.2 1009650
06:00−2юз61491100 0.1 1005700
09:00−1юз71589100 0.4 1002837
12:00+1зюз71586100 0.0 9991268
15:00+1зюз71489100 0.1 9971265
18:000зюз71397100 0.2 9961038
21:00−3сз41385100 1.9 998745
5 марта, пт
пт500:00−4зсз31090100 0.0 1000468
03:00−9зсз389350 0.0 1003195
06:00−11зсз25960 0.0 1006108
09:00−9сз25901 0.0 1009236
12:00−5ссз12720 0.0 1010474
15:00−3зюз006817 0.0 1011690
18:00−8ю118172 0.0 101121
21:00−9юв128886 0.0 101221